EW3570 Weather Reports


Display with metric or nautical units.
time (UTC)temp
F
wind
direction
speed
MPH
gust
MPH
rain 1hr
in
rain 24hr
in
rain mn
in
humidity
%
barometer
mb
20190424001408 54 45 0.0 0.0 0.00 0.00 0.00 53 998.3
20190424000904 55 180 0.0 0.0 0.00 0.00 0.00 53 998.3
20190424000342 55 90 0.0 0.0 0.00 0.00 0.00 53 998.3
20190423235835 55 90 0.0 0.0 0.00 0.00 0.00 53 998.2
20190423235322 55 90 0.0 0.0 0.00 0.00 0.00 53 998.2
20190423234817 55 90 0.0 0.0 0.00 0.00 0.00 53 998.3
20190423234302 55 90 0.0 0.0 0.00 0.00 0.00 53 998.2
20190423233752 56 90 0.0 0.0 0.00 0.00 0.00 53 997.9
20190423233244 56 90 0.0 0.0 0.00 0.00 0.00 53 998.0
20190423232732 56 90 0.0 0.0 0.00 0.00 0.00 52 998.0
20190423232224 56 135 0.0 0.0 0.00 0.00 0.00 52 998.1
20190423231735 56 180 0.0 0.0 0.00 0.00 0.00 52 998.3
20190423231200 56 135 0.0 1.0 0.00 0.00 0.00 52 998.1
20190423230652 56 45 0.0 1.0 0.00 0.00 0.00 52 998.0
20190423230141 56 90 0.0 1.0 0.00 0.00 0.00 52 998.0
20190423225635 56 45 0.0 0.0 0.00 0.00 0.00 52 997.8
20190423225120 57 90 0.0 0.0 0.00 0.00 0.00 52 998.0
20190423224619 57 135 0.0 1.0 0.00 0.00 0.00 52 997.9
20190423224102 57 135 0.0 1.0 0.00 0.00 0.00 51 997.9
20190423223555 57 90 0.0 0.0 0.00 0.00 0.00 51 998.0
20190423223050 57 90 0.0 0.0 0.00 0.00 0.00 51 998.1
20190423222530 57 135 0.0 0.0 0.00 0.00 0.00 51 997.9
20190423222027 58 225 0.0 0.0 0.00 0.00 0.00 51 998.1
20190423221535 58 90 0.0 0.0 0.00 0.00 0.00 51 998.1
20190423220959 58 90 0.0 0.0 0.00 0.00 0.00 51 998.0
20190423220507 58 135 0.0 0.0 0.00 0.00 0.00 51 997.9
20190423215938 58 135 0.0 1.0 0.00 0.00 0.00 51 998.0
20190423215436 58 135 0.0 1.0 0.00 0.00 0.00 51 997.9
20190423214928 58 315 0.0 0.0 0.00 0.00 0.00 51 997.9
20190423214408 58 90 0.0 0.0 0.00 0.00 0.00 51 997.8
20190423213903 59 90 0.0 0.0 0.00 0.00 0.00 51 997.5
20190423213348 59 90 0.0 0.0 0.00 0.00 0.00 51 997.5
20190423212837 59 90 0.0 0.0 0.00 0.00 0.00 50 997.5
20190423212329 59 90 0.0 0.0 0.00 0.00 0.00 51 997.4
20190423211817 59 90 0.0 0.0 0.00 0.00 0.00 51 997.3
20190423211310 59 90 0.0 0.0 0.00 0.00 0.00 50 997.0
20190423210756 59 90 0.0 0.0 0.00 0.00 0.00 50 997.1
20190423210247 59 90 0.0 0.0 0.00 0.00 0.00 50 997.1
20190423205803 59 90 0.0 0.0 0.00 0.00 0.00 50 997.0
20190423205226 60 90 0.0 0.0 0.00 0.00 0.00 50 997.0
20190423204720 60 90 0.0 0.0 0.00 0.00 0.00 50 996.9
20190423204219 60 90 0.0 0.0 0.00 0.00 0.00 50 997.3
20190423203656 60 90 0.0 0.0 0.00 0.00 0.00 45 997.3
20190423203212 61 90 0.0 0.0 0.00 0.00 0.00 45 997.1
20190423202636 61 90 0.0 0.0 0.00 0.00 0.00 45 997.1
20190423202130 61 90 0.0 0.0 0.00 0.00 0.00 44 996.9
20190423201615 61 90 0.0 0.0 0.00 0.00 0.00 44 996.9
20190423201105 61 135 0.0 0.0 0.00 0.00 0.00 44 997.1
20190423200558 62 90 0.0 0.0 0.00 0.00 0.00 45 996.8
20190423200045 62 90 0.0 2.0 0.00 0.00 0.00 45 996.8
20190423195540 61 135 0.0 2.0 0.00 0.00 0.00 44 996.6
20190423195036 62 90 0.0 0.0 0.00 0.00 0.00 45 996.6
20190423194515 62 90 0.0 0.0 0.00 0.00 0.00 44 996.7
20190423194007 62 45 0.0 0.0 0.00 0.00 0.00 44 996.5
20190423193454 62 45 0.0 1.0 0.00 0.00 0.00 43 996.4
20190423192948 62 135 0.0 1.0 0.00 0.00 0.00 44 996.6
20190423192434 62 180 0.0 1.0 0.00 0.00 0.00 44 996.4
20190423191924 62 90 0.0 2.0 0.00 0.00 0.00 44 996.3
20190423191439 63 180 0.0 2.0 0.00 0.00 0.00 43 996.1
20190423190903 63 45 0.0 0.0 0.00 0.00 0.00 43 996.2
20190423190358 63 45 0.0 1.0 0.00 0.00 0.00 43 996.2
20190423185844 64 135 0.0 1.0 0.00 0.00 0.00 43 996.0
20190423185332 64 45 0.0 1.0 0.00 0.00 0.00 43 995.9
20190423184825 64 90 0.0 0.0 0.00 0.00 0.00 42 996.0
20190423184313 64 0 0.0 0.0 0.00 0.00 0.00 42 996.0
20190423183807 65 315 0.0 0.0 0.00 0.00 0.00 41 995.8
20190423183304 65 135 0.0 0.0 0.00 0.00 0.00 41 995.7
20190423182743 65 315 0.0 0.0 0.00 0.00 0.00 41 995.7
20190423182234 65 135 0.0 0.0 0.00 0.00 0.00 41 995.7
20190423181721 66 45 0.0 0.0 0.00 0.00 0.00 40 995.6
20190423181221 66 90 0.0 0.0 0.00 0.00 0.00 40 995.5
20190423180725 66 135 0.0 0.0 0.00 0.00 0.00 40 995.6
20190423180151 66 45 0.0 0.0 0.00 0.00 0.00 40 995.6
20190423175644 66 90 0.0 0.0 0.00 0.00 0.00 40 995.6
20190423175131 67 90 0.0 0.0 0.00 0.00 0.00 39 995.5
20190423174625 67 45 0.0 0.0 0.00 0.00 0.00 38 995.5
20190423174111 67 90 0.0 0.0 0.00 0.00 0.00 37 995.6
20190423173601 67 90 0.0 0.0 0.00 0.00 0.00 38 995.5
20190423173053 67 90 0.0 0.0 0.00 0.00 0.00 37 995.4
20190423172540 67 90 0.0 0.0 0.00 0.00 0.00 36 995.6
20190423172033 67 90 0.0 0.0 0.00 0.00 0.00 35 995.5
20190423171520 67 90 0.0 0.0 0.00 0.00 0.00 35 995.5
20190423171010 67 90 0.0 2.0 0.00 0.00 0.00 34 995.6
20190423170526 68 45 0.0 2.0 0.00 0.00 0.00 33 995.5
20190423165950 68 0 0.0 2.0 0.00 0.00 0.00 34 995.5
20190423165443 68 315 0.0 2.0 0.00 0.00 0.00 34 995.5
20190423164929 68 315 1.0 2.0 0.00 0.00 0.00 34 995.7
20190423164437 68 0 0.0 2.0 0.00 0.00 0.00 33 995.6
20190423163923 68 315 0.0 2.0 0.00 0.00 0.00 33 995.7
20190423163345 68 315 1.0 2.0 0.00 0.00 0.00 32 995.6
20190423162837 68 0 0.0 2.0 0.00 0.00 0.00 32 995.5
20190423162324 68 45 0.0 1.0 0.00 0.00 0.00 32 995.5
20190423161819 68 135 0.0 2.0 0.00 0.00 0.00 32 995.5
20190423161304 69 338 0.0 2.0 0.00 0.00 0.00 32 995.4
20190423160753 69 315 0.0 2.0 0.00 0.00 0.00 32 995.5
20190423160247 69 0 1.0 3.0 0.00 0.00 0.00 32 995.5
20190423155734 69 45 2.0 3.0 0.00 0.00 0.00 32 995.6
20190423155228 69 45 0.0 2.0 0.00 0.00 0.00 32 995.5
20190423154713 69 0 0.0 3.0 0.00 0.00 0.00 31 995.5
20190423154206 69 338 1.0 4.0 0.00 0.00 0.00 29 995.4
20190423153702 69 45 2.0 4.0 0.00 0.00 0.00 30 995.4
20190423153155 69 315 2.0 5.0 0.00 0.00 0.00 29 995.6
20190423152638 69 315 1.0 5.0 0.00 0.00 0.00 30 995.4
20190423152148 69 45 3.0 5.0 0.00 0.00 0.00 29 995.6
20190423151612 69 0 1.0 2.0 0.00 0.00 0.00 29 995.6
20190423151105 69 90 0.0 2.0 0.00 0.00 0.00 30 995.5
20190423150551 69 315 1.0 3.0 0.00 0.00 0.00 30 995.5
20190423150055 69 0 2.0 3.0 0.00 0.00 0.00 29 995.6
20190423145531 70 90 0.0 3.0 0.00 0.00 0.00 28 995.6
20190423145025 70 0 1.0 2.0 0.00 0.00 0.00 28 995.7
20190423144513 70 90 0.0 2.0 0.00 0.00 0.00 28 995.6
20190423144011 70 90 1.0 2.0 0.00 0.00 0.00 28 995.7
20190423143454 70 0 0.0 2.0 0.00 0.00 0.00 26 995.7
20190423142939 70 0 0.0 2.0 0.00 0.00 0.00 27 995.7
20190423142433 69 0 1.0 2.0 0.00 0.00 0.00 26 995.7
20190423141945 69 90 0.0 3.0 0.00 0.00 0.00 27 995.8
20190423141408 69 270 1.0 3.0 0.00 0.00 0.00 26 995.7
20190423140903 69 135 2.0 3.0 0.00 0.00 0.00 27 995.8
20190423140347 69 315 1.0 2.0 0.00 0.00 0.00 26 995.8
20190423135837 69 90 0.0 2.0 0.00 0.00 0.00 26 995.8
20190423135341 69 45 0.0 2.0 0.00 0.00 0.00 26 995.9
20190423134816 69 45 0.0 3.0 0.00 0.00 0.00 30 996.0
20190423134311 69 225 0.0 3.0 0.00 0.00 0.00 30 995.8
20190423133807 69 0 1.0 2.0 0.00 0.00 0.00 30 995.9
20190423133245 69 0 0.0 2.0 0.00 0.00 0.00 30 996.1
20190423132737 69 45 0.0 2.0 0.00 0.00 0.00 30 996.1
20190423132224 68 0 0.0 2.0 0.00 0.00 0.00 30 996.3
20190423131719 68 90 0.0 3.0 0.00 0.00 0.00 30 996.2
20190423131203 68 0 2.0 3.0 0.00 0.00 0.00 30 996.3
20190423130652 68 0 0.0 2.0 0.00 0.00 0.00 30 996.2
20190423130145 68 45 1.0 3.0 0.00 0.00 0.00 30 996.3
20190423125632 68 0 1.0 3.0 0.00 0.00 0.00 30 996.2
20190423125127 69 0 1.0 2.0 0.00 0.00 0.00 30 996.2
20190423124612 69 0 1.0 2.0 0.00 0.00 0.00 28 996.3
20190423124102 69 0 0.0 2.0 0.00 0.00 0.00 30 996.3
20190423123554 69 0 1.0 2.0 0.00 0.00 0.00 30 996.3
20190423123042 68 45 0.0 2.0 0.00 0.00 0.00 31 996.3
20190423122535 68 0 1.0 2.0 0.00 0.00 0.00 31 996.3
20190423122021 68 315 0.0 2.0 0.00 0.00 0.00 30 996.4
20190423121510 68 315 0.0 2.0 0.00 0.00 0.00 30 996.3
20190423121004 67 0 0.0 2.0 0.00 0.00 0.00 31 996.3
20190423120450 67 45 0.0 1.0 0.00 0.00 0.00 33 996.3
20190423115944 67 90 0.0 2.0 0.00 0.00 0.00 33 996.6
20190423115430 67 315 0.0 2.0 0.00 0.00 0.00 34 996.3
20190423114920 66 315 0.0 3.0 0.00 0.00 0.00 33 996.4
20190423114412 66 45 1.0 3.0 0.00 0.00 0.00 33 996.3
20190423113900 66 45 0.0 2.0 0.00 0.00 0.00 32 996.3
20190423113353 66 90 1.0 2.0 0.00 0.00 0.00 32 996.2
20190423112903 66 23 0.0 2.0 0.00 0.00 0.00 32 996.2
20190423112329 66 135 0.0 2.0 0.00 0.00 0.00 33 996.3
20190423111824 66 0 0.0 1.0 0.00 0.00 0.00 34 996.3
20190423111309 66 315 0.0 1.0 0.00 0.00 0.00 35 996.1
20190423110807 66 0 0.0 1.0 0.00 0.00 0.00 37 996.3
20190423110248 65 0 0.0 2.0 0.00 0.00 0.00 40 996.4
20190423105750 65 45 0.0 2.0 0.00 0.00 0.00 40 996.3
20190423105231 65 0 0.0 4.0 0.00 0.00 0.00 40 996.2
20190423104718 66 225 0.0 4.0 0.00 0.00 0.00 40 996.3
20190423104212 66 315 0.0 2.0 0.00 0.00 0.00 40 996.2
20190423103657 65 90 0.0 2.0 0.00 0.00 0.00 40 996.3
20190423103148 65 315 0.0 1.0 0.00 0.00 0.00 39 996.2
20190423102704 65 0 0.0 2.0 0.00 0.00 0.00 39 996.3
20190423102128 65 225 0.0 2.0 0.00 0.00 0.00 40 996.5
20190423101622 65 0 0.0 1.0 0.00 0.00 0.00 40 996.3
20190423101107 65 0 0.0 1.0 0.00 0.00 0.00 40 996.5
20190423100556 64 315 0.0 1.0 0.00 0.00 0.00 41 996.5
20190423100049 64 315 0.0 1.0 0.00 0.00 0.00 41 996.6
20190423095537 63 90 0.0 1.0 0.00 0.00 0.00 41 996.6
20190423095030 62 225 0.0 1.0 0.00 0.00 0.00 42 996.5
20190423094516 62 90 0.0 1.0 0.00 0.00 0.00 43 996.5
20190423094006 61 0 0.0 2.0 0.00 0.00 0.00 44 996.6
20190423093459 61 90 0.0 2.0 0.00 0.00 0.00 44 996.5
20190423092946 60 113 1.0 2.0 0.00 0.00 0.00 44 996.5
20190423092441 60 270 0.0 2.0 0.00 0.00 0.00 44 996.5
20190423091925 60 0 0.0 2.0 0.00 0.00 0.00 50 996.6
20190423091415 60 0 0.0 2.0 0.00 0.00 0.00 50 996.5
20190423090908 60 315 1.0 2.0 0.00 0.00 0.00 50 996.6
20190423090355 60 0 0.0 2.0 0.00 0.00 0.00 50 996.6
20190423085849 60 315 2.0 2.0 0.00 0.00 0.00 50 996.7
20190423085335 60 315 1.0 2.0 0.00 0.00 0.00 50 996.7
20190423084828 59 0 0.0 3.0 0.00 0.00 0.00 50 996.6
20190423084329 59 45 1.0 3.0 0.00 0.00 0.00 50 996.5
20190423083804 58 45 2.0 3.0 0.00 0.00 0.00 50 996.6
20190423083259 58 0 0.0 2.0 0.00 0.00 0.00 50 996.5
20190423082809 58 135 0.0 2.0 0.00 0.00 0.00 50 996.5
20190423082234 57 0 1.0 3.0 0.00 0.00 0.00 50 996.6
20190423081726 57 45 1.0 3.0 0.00 0.00 0.00 50 996.7
20190423081214 57 45 0.0 2.0 0.00 0.00 0.00 51 996.5
20190423080712 57 293 1.0 2.0 0.00 0.00 0.00 50 996.6
20190423080154 57 90 0.0 1.0 0.00 0.00 0.00 50 996.6
20190423075649 57 90 0.0 2.0 0.00 0.00 0.00 51 996.6
20190423075135 56 315 0.0 2.0 0.00 0.00 0.00 51 996.5
20190423074625 56 45 1.0 2.0 0.00 0.00 0.00 51 996.5
20190423074121 56 0 0.0 2.0 0.00 0.00 0.00 51 996.5
20190423073603 56 293 0.0 2.0 0.00 0.00 0.00 50 996.5
20190423073057 56 0 0.0 1.0 0.00 0.00 0.00 50 996.5
20190423072550 56 0 0.0 2.0 0.00 0.00 0.00 51 996.5
20190423072033 55 45 0.0 2.0 0.00 0.00 0.00 50 996.6
20190423071545 55 270 0.0 2.0 0.00 0.00 0.00 50 996.8
20190423071011 55 0 0.0 2.0 0.00 0.00 0.00 50 996.6
20190423070502 55 23 1.0 2.0 0.00 0.00 0.00 51 996.8
20190423065954 55 0 0.0 2.0 0.00 0.00 0.00 50 996.6
20190423065441 55 45 1.0 2.0 0.00 0.00 0.00 51 996.7
20190423064934 55 315 0.0 1.0 0.00 0.00 0.00 52 996.5
20190423064432 54 0 0.0 1.0 0.00 0.00 0.00 51 996.6
20190423063910 55 45 0.0 1.0 0.00 0.00 0.00 51 996.6
20190423063403 55 0 0.0 0.0 0.00 0.00 0.00 51 996.7
20190423062850 55 45 0.0 1.0 0.00 0.00 0.00 51 996.8
20190423062344 55 315 0.0 1.0 0.00 0.00 0.00 51 996.9
20190423061829 54 45 0.0 2.0 0.00 0.00 0.00 51 996.9
20190423061319 54 45 0.0 2.0 0.00 0.00 0.00 51 996.7
20190423060811 54 45 0.0 1.0 0.00 0.00 0.00 51 996.9
20190423060258 54 0 0.0 1.0 0.00 0.00 0.00 51 996.8
20190423055752 54 45 0.0 1.0 0.00 0.00 0.00 51 996.8
20190423055248 54 315 0.0 1.0 0.00 0.00 0.00 51 996.9
20190423054727 54 0 0.0 1.0 0.00 0.00 0.00 52 996.8
20190423054218 54 45 0.0 1.0 0.00 0.00 0.00 52 996.9
20190423053706 53 45 0.0 1.0 0.00 0.00 0.00 51 997.0
20190423053201 53 0 0.0 0.0 0.00 0.00 0.00 51 996.9
20190423052645 54 90 0.0 0.0 0.00 0.00 0.00 51 997.0
20190423052136 53 90 0.0 0.0 0.00 0.00 0.00 50 996.9
20190423051628 54 45 0.0 1.0 0.00 0.00 0.00 50 996.9
20190423051115 54 135 0.0 1.0 0.00 0.00 0.00 50 997.1
20190423050612 54 90 0.0 0.0 0.00 0.00 0.00 50 997.1
20190423050108 55 135 0.0 0.0 0.00 0.00 0.00 50 997.1
20190423045545 55 135 0.0 0.0 0.00 0.00 0.00 50 997.1
20190423045037 54 135 0.0 0.0 0.00 0.00 0.00 50 997.4
20190423044525 54 135 0.0 0.0 0.00 0.00 0.00 50 997.0
20190423044020 54 135 0.0 0.0 0.00 0.00 0.00 50 997.1
20190423043504 54 135 0.0 0.0 0.00 0.00 0.00 49 997.1
20190423042954 54 90 0.0 0.0 0.00 0.00 0.00 49 997.3
20190423042446 55 45 0.0 0.0 0.00 0.00 0.00 48 997.3
20190423041943 55 90 0.0 0.0 0.00 0.00 0.00 48 997.3
20190423041436 55 90 0.0 0.0 0.00 0.00 0.00 48 997.1
20190423040938 55 90 0.0 0.0 0.00 0.00 0.00 48 997.1
20190423040403 54 90 0.0 0.0 0.00 0.00 0.00 48 997.3
20190423035920 54 90 0.0 0.0 0.00 0.00 0.00 48 997.3
20190423035343 54 45 0.0 2.0 0.00 0.00 0.00 48 997.0
20190423034838 55 0 0.0 2.0 0.00 0.00 0.00 48 997.1
20190423034335 55 45 0.0 0.0 0.00 0.00 0.00 47 996.9
20190423033812 55 0 0.0 0.0 0.00 0.00 0.00 46 997.1
20190423033320 55 225 0.0 1.0 0.00 0.00 0.00 46 996.9
20190423032752 55 180 0.0 1.0 0.00 0.00 0.00 46 997.0
20190423032251 55 338 0.0 1.0 0.00 0.00 0.00 46 997.0
20190423031731 55 90 0.0 0.0 0.00 0.00 0.00 46 997.0
20190423031221 55 45 0.0 0.0 0.00 0.00 0.00 47 997.0
20190423030737 55 45 0.0 0.0 0.00 0.00 0.00 47 997.0
20190423030200 55 90 0.0 1.0 0.00 0.00 0.00 45 997.3
20190423025654 55 0 0.0 1.0 0.00 0.00 0.00 45 997.0
20190423025140 55 23 0.0 1.0 0.00 0.00 0.00 45 997.3
20190423024629 55 45 0.0 1.0 0.00 0.00 0.00 45 997.3
20190423024122 56 23 0.0 1.0 0.00 0.00 0.00 44 997.4
20190423023609 56 45 0.0 1.0 0.00 0.00 0.00 43 997.3
20190423023103 56 135 0.0 1.0 0.00 0.00 0.00 43 997.4
20190423022548 56 90 0.0 1.0 0.00 0.00 0.00 44 997.6
20190423022038 56 90 0.0 1.0 0.00 0.00 0.00 44 997.7
20190423021543 56 0 0.0 1.0 0.00 0.00 0.00 44 997.8
20190423021018 56 90 0.0 0.0 0.00 0.00 0.00 42 997.8
20190423020513 56 90 0.0 0.0 0.00 0.00 0.00 44 997.6
20190423015958 56 90 0.0 2.0 0.00 0.00 0.00 44 997.7
20190423015447 57 315 0.0 2.0 0.00 0.00 0.00 42 997.8
20190423015004 57 45 0.0 2.0 0.00 0.00 0.00 42 997.8
20190423014427 57 45 0.0 1.0 0.00 0.00 0.00 42 997.7
20190423013920 57 0 0.0 1.0 0.00 0.00 0.00 41 997.8
20190423013417 57 23 0.0 1.0 0.00 0.00 0.00 41 997.8
20190423012856 57 0 0.0 2.0 0.00 0.00 0.00 41 997.6
20190423012349 57 45 0.0 2.0 0.00 0.00 0.00 41 997.4
20190423011836 57 0 0.0 2.0 0.00 0.00 0.00 41 997.5
20190423011330 57 45 0.0 1.0 0.00 0.00 0.00 41 997.6
20190423010840 57 315 0.0 2.0 0.00 0.00 0.00 40 997.5
20190423010306 57 90 0.0 2.0 0.00 0.00 0.00 40 997.6
20190423005822 57 0 0.0 1.0 0.00 0.00 0.00 40 997.6
20190423005245 57 315 0.0 1.0 0.00 0.00 0.00 40 997.5
20190423004740 58 0 0.0 2.0 0.00 0.00 0.00 40 997.6
20190423004225 58 45 0.0 2.0 0.00 0.00 0.00 40 997.4
20190423003715 57 315 0.0 3.0 0.00 0.00 0.00 40 997.6
20190423003208 57 315 0.0 3.0 0.00 0.00 0.00 41 997.5
20190423002655 58 45 0.0 2.0 0.00 0.00 0.00 41 997.5
20190423002149 58 315 0.0 2.0 0.00 0.00 0.00 40 997.4
20190423001634 58 315 0.0 2.0 0.00 0.00 0.00 40 997.5